MSR621 OKKK-HECA

Flight info

Callsign MSR621
Flight time 2h 27m
Altitude 36000
Route NIDAP L550 NOVPA N697 MENLI L677 CVO
Aircraft B738/M-SDE2E3FGHIRWXY/LB1

Departure

Time 2026-05-05 16:30
Airport Kuwait International Airport (OKKK)

Arrival

Time 2026-05-05 18:57
Airport Cairo International Airport (HECA)
Time Latitude Longitude Altitude Speed Heading
2026-05-05 15:55 29.23723 47.97210 166 ft 0 kts 25°
2026-05-05 16:09 29.23722 47.97209 166 ft 2 kts 25°
2026-05-05 16:10 29.23699 47.97196 166 ft 4 kts 25°
2026-05-05 16:10 29.23674 47.97183 166 ft 3 kts 25°
2026-05-05 16:10 29.23654 47.97171 166 ft 4 kts 49°
2026-05-05 16:10 29.23646 47.97148 166 ft 4 kts 112°
2026-05-05 16:11 29.23662 47.97127 166 ft 4 kts 155°
2026-05-05 16:11 29.23683 47.97116 166 ft 0 kts 155°
2026-05-05 16:16 29.23615 47.97152 166 ft 13 kts 151°
2026-05-05 16:16 29.23536 47.97158 166 ft 8 kts 237°
2026-05-05 16:17 29.23487 47.97022 166 ft 9 kts 245°
2026-05-05 16:17 29.23460 47.96958 167 ft 9 kts 245°
2026-05-05 16:18 29.23410 47.96833 171 ft 8 kts 241°
2026-05-05 16:18 29.23375 47.96782 176 ft 8 kts 212°
2026-05-05 16:18 29.23273 47.96816 177 ft 8 kts 156°
2026-05-05 16:19 29.23224 47.96841 176 ft 8 kts 155°
2026-05-05 16:19 29.23188 47.96860 175 ft 6 kts 155°
2026-05-05 16:19 29.23102 47.96906 172 ft 9 kts 155°
2026-05-05 16:20 29.22974 47.96974 169 ft 10 kts 155°
2026-05-05 16:20 29.22849 47.97041 168 ft 10 kts 155°
2026-05-05 16:21 29.22729 47.97105 168 ft 9 kts 155°
2026-05-05 16:22 29.22690 47.97126 168 ft 9 kts 155°
2026-05-05 16:23 29.22235 47.97371 168 ft 7 kts 158°
2026-05-05 16:24 29.22191 47.97392 168 ft 7 kts 158°
2026-05-05 16:24 29.22148 47.97413 168 ft 7 kts 156°
2026-05-05 16:24 29.22064 47.97456 167 ft 7 kts 155°
2026-05-05 16:25 29.22023 47.97478 167 ft 6 kts 155°
2026-05-05 16:25 29.21943 47.97521 167 ft 6 kts 155°
2026-05-05 16:25 29.21903 47.97542 167 ft 7 kts 155°
2026-05-05 16:26 29.21810 47.97592 167 ft 8 kts 155°
2026-05-05 16:26 29.21690 47.97654 168 ft 11 kts 155°
2026-05-05 16:27 29.21619 47.97693 168 ft 12 kts 154°
2026-05-05 16:27 29.21541 47.97736 169 ft 13 kts 155°
2026-05-05 16:27 29.21457 47.97781 170 ft 14 kts 155°
2026-05-05 16:27 29.21369 47.97828 171 ft 14 kts 155°
2026-05-05 16:28 29.21275 47.97846 170 ft 14 kts 212°
2026-05-05 16:28 29.21248 47.97745 172 ft 14 kts 301°
2026-05-05 16:28 29.21299 47.97652 180 ft 13 kts 298°
2026-05-05 16:28 29.21364 47.97580 180 ft 14 kts 335°
2026-05-05 16:29 29.21455 47.97531 180 ft 16 kts 335°
2026-05-05 16:29 29.21667 47.97417 179 ft 72 kts 335°
2026-05-05 16:29 29.22342 47.97060 183 ft 140 kts 335°
2026-05-05 16:29 29.23391 47.96503 317 ft 184 kts 336°
2026-05-05 16:30 29.24622 47.95857 887 ft 205 kts 335°
2026-05-05 16:30 29.25956 47.95136 1650 ft 212 kts 335°
2026-05-05 16:30 29.27285 47.94430 2490 ft 215 kts 336°
2026-05-05 16:30 29.28670 47.93697 3085 ft 222 kts 335°
2026-05-05 16:31 29.30088 47.92949 3692 ft 225 kts 335°
2026-05-05 16:31 29.31516 47.92197 3970 ft 228 kts 334°
2026-05-05 16:31 29.32956 47.91437 3997 ft 227 kts 334°
2026-05-05 16:31 29.34277 47.90477 3982 ft 225 kts 308°
2026-05-05 16:32 29.34871 47.88866 4090 ft 224 kts 271°
2026-05-05 16:32 29.34559 47.87104 4534 ft 230 kts 245°
2026-05-05 16:32 29.33732 47.85540 5181 ft 232 kts 233°
2026-05-05 16:32 29.32776 47.84021 5909 ft 235 kts 233°
2026-05-05 16:33 29.31827 47.82503 6749 ft 235 kts 233°
2026-05-05 16:33 29.30890 47.80990 7482 ft 237 kts 230°
2026-05-05 16:33 29.29613 47.79826 8163 ft 238 kts 200°
2026-05-05 16:33 29.27966 47.79588 8711 ft 249 kts 171°
2026-05-05 16:34 29.26297 47.80394 8909 ft 276 kts 147°
2026-05-05 16:34 29.24682 47.81702 9317 ft 291 kts 146°
2026-05-05 16:34 29.23020 47.83073 9948 ft 297 kts 146°
2026-05-05 16:34 29.21337 47.84455 10706 ft 299 kts 146°
2026-05-05 16:35 29.20758 47.84914 10964 ft 299 kts 149°
2026-05-05 16:35 29.17298 47.86790 11466 ft 333 kts 160°
2026-05-05 16:35 29.15069 47.87766 11634 ft 353 kts 161°
2026-05-05 16:35 29.12714 47.88796 11820 ft 371 kts 160°
2026-05-05 16:36 29.10281 47.89883 12293 ft 378 kts 160°
2026-05-05 16:36 29.07837 47.90999 12909 ft 380 kts 160°
2026-05-05 16:36 29.05372 47.92138 13506 ft 384 kts 160°
2026-05-05 16:36 29.02885 47.93293 14073 ft 387 kts 160°
2026-05-05 16:37 29.00380 47.94457 14653 ft 391 kts 160°
2026-05-05 16:37 28.97848 47.95634 15222 ft 395 kts 160°
2026-05-05 16:37 28.95290 47.96820 15778 ft 398 kts 160°
2026-05-05 16:37 28.92646 47.97748 16303 ft 398 kts 175°
2026-05-05 16:38 28.89922 47.97840 16837 ft 399 kts 182°
2026-05-05 16:38 28.87134 47.97868 17369 ft 402 kts 181°
2026-05-05 16:38 28.84322 47.97926 17886 ft 405 kts 181°
2026-05-05 16:38 28.81494 47.98004 18386 ft 409 kts 181°
2026-05-05 16:39 28.78637 47.98075 18880 ft 411 kts 184°
2026-05-05 16:39 28.75852 47.97431 19327 ft 409 kts 206°
2026-05-05 16:39 28.73530 47.95613 19857 ft 407 kts 226°
2026-05-05 16:39 28.71778 47.93085 20365 ft 407 kts 239°
2026-05-05 16:40 28.70644 47.90128 20791 ft 410 kts 254°
2026-05-05 16:40 28.69975 47.86962 21252 ft 413 kts 257°
2026-05-05 16:40 28.69364 47.83758 21669 ft 415 kts 257°
2026-05-05 16:40 28.68750 47.80532 22079 ft 418 kts 257°
2026-05-05 16:41 28.68116 47.77294 22473 ft 420 kts 256°
2026-05-05 16:41 28.67461 47.74043 22870 ft 423 kts 256°
2026-05-05 16:41 28.66793 47.70774 23266 ft 425 kts 256°
2026-05-05 16:41 28.66115 47.67489 23648 ft 427 kts 256°
2026-05-05 16:42 28.65446 47.64194 23996 ft 429 kts 258°
2026-05-05 16:42 28.65066 47.60811 24324 ft 433 kts 266°
2026-05-05 16:42 28.65148 47.57379 24688 ft 436 kts 274°
2026-05-05 16:42 28.65344 47.55105 24928 ft 437 kts 274°
2026-05-05 16:43 28.65764 47.50498 25363 ft 438 kts 274°
2026-05-05 16:43 28.65972 47.48207 25580 ft 439 kts 274°
2026-05-05 16:43 28.66280 47.44736 25881 ft 441 kts 274°
2026-05-05 16:43 28.66579 47.41259 26196 ft 442 kts 274°
2026-05-05 16:44 28.66871 47.37765 26496 ft 444 kts 274°
2026-05-05 16:44 28.67159 47.34266 26780 ft 445 kts 274°
2026-05-05 16:44 28.67446 47.30746 27060 ft 447 kts 274°
2026-05-05 16:44 28.67731 47.27222 27346 ft 448 kts 274°
2026-05-05 16:45 28.68016 47.23688 27617 ft 449 kts 274°
2026-05-05 16:45 28.68302 47.20143 27874 ft 450 kts 274°
2026-05-05 16:45 28.68588 47.16586 28127 ft 451 kts 274°
2026-05-05 16:45 28.68873 47.13035 28440 ft 451 kts 274°
2026-05-05 16:46 28.69156 47.09489 28818 ft 448 kts 274°
2026-05-05 16:46 28.69438 47.05959 29227 ft 446 kts 274°
2026-05-05 16:46 28.69716 47.02451 29620 ft 444 kts 274°
2026-05-05 16:46 28.69993 46.98955 29970 ft 443 kts 274°
2026-05-05 16:47 28.70268 46.95469 30295 ft 442 kts 273°
2026-05-05 16:47 28.70543 46.91980 30659 ft 440 kts 273°
2026-05-05 16:47 28.70815 46.88516 31050 ft 438 kts 273°
2026-05-05 16:47 28.71087 46.85064 31424 ft 437 kts 273°
2026-05-05 16:48 28.71364 46.81627 31763 ft 436 kts 273°
2026-05-05 16:48 28.71644 46.78199 32119 ft 434 kts 273°
2026-05-05 16:48 28.71923 46.74779 32503 ft 432 kts 273°
2026-05-05 16:48 28.72196 46.71427 32856 ft 430 kts 273°
2026-05-05 16:49 28.72473 46.67992 33172 ft 429 kts 273°
2026-05-05 16:49 28.72741 46.64659 33462 ft 428 kts 273°
2026-05-05 16:49 28.73011 46.61284 33754 ft 427 kts 273°
2026-05-05 16:49 28.73280 46.57921 34077 ft 426 kts 272°
2026-05-05 16:50 28.73546 46.54570 34389 ft 424 kts 272°
2026-05-05 16:50 28.73812 46.51230 34678 ft 423 kts 272°
2026-05-05 16:50 28.74074 46.47895 34973 ft 422 kts 272°
2026-05-05 16:50 28.74334 46.44581 35313 ft 419 kts 272°
2026-05-05 16:51 28.74593 46.41284 35616 ft 417 kts 272°
2026-05-05 16:51 28.74850 46.37992 35821 ft 417 kts 272°
2026-05-05 16:51 28.75363 46.31366 35821 ft 419 kts 272°
2026-05-05 16:52 28.75848 46.24782 35821 ft 416 kts 272°
2026-05-05 16:52 28.76321 46.18245 35821 ft 412 kts 272°
2026-05-05 16:53 28.76789 46.11755 35822 ft 410 kts 272°
2026-05-05 16:53 28.77253 46.05280 35828 ft 410 kts 272°
2026-05-05 16:54 28.77717 45.98789 35826 ft 412 kts 272°
2026-05-05 16:54 28.78178 45.92313 35829 ft 414 kts 272°
2026-05-05 16:55 28.78639 45.85761 35828 ft 416 kts 272°
2026-05-05 16:55 28.79099 45.79180 35827 ft 418 kts 272°
2026-05-05 16:56 28.79560 45.72568 35824 ft 419 kts 272°
2026-05-05 16:56 28.80019 45.65932 35835 ft 420 kts 272°
2026-05-05 16:57 28.80474 45.59294 35832 ft 420 kts 271°
2026-05-05 16:57 28.80925 45.52658 35832 ft 420 kts 271°
2026-05-05 16:58 28.81373 45.46028 35833 ft 419 kts 271°
2026-05-05 16:58 28.81818 45.39407 35832 ft 418 kts 271°
2026-05-05 16:59 28.82258 45.32806 35833 ft 417 kts 271°
2026-05-05 16:59 28.82693 45.26222 35833 ft 416 kts 271°
2026-05-05 17:00 28.83124 45.19628 35832 ft 416 kts 271°
2026-05-05 17:00 28.83553 45.13061 35840 ft 415 kts 271°
2026-05-05 17:01 28.83977 45.06504 35846 ft 415 kts 271°
2026-05-05 17:01 28.84398 44.99940 35844 ft 415 kts 271°
2026-05-05 17:02 28.84815 44.93383 35845 ft 414 kts 271°
2026-05-05 17:02 28.85229 44.86830 35852 ft 414 kts 271°
2026-05-05 17:03 28.85640 44.80281 35853 ft 414 kts 271°
2026-05-05 17:03 28.86052 44.73720 35854 ft 415 kts 271°
2026-05-05 17:04 28.86561 44.67158 35857 ft 416 kts 272°
2026-05-05 17:04 28.87111 44.60582 35869 ft 417 kts 272°
2026-05-05 17:05 28.87649 44.54002 35864 ft 417 kts 272°
2026-05-05 17:05 28.88179 44.47405 35872 ft 417 kts 272°
2026-05-05 17:06 28.88697 44.40855 35874 ft 417 kts 272°
2026-05-05 17:06 28.89216 44.34257 35879 ft 417 kts 272°
2026-05-05 17:07 28.89735 44.27616 35885 ft 417 kts 272°
2026-05-05 17:07 28.90244 44.21068 35887 ft 417 kts 272°
2026-05-05 17:08 28.90754 44.14470 35890 ft 417 kts 272°
2026-05-05 17:08 28.91260 44.07868 35890 ft 417 kts 272°
2026-05-05 17:09 28.91762 44.01276 35889 ft 417 kts 272°
2026-05-05 17:09 28.92263 43.94680 35897 ft 417 kts 272°
2026-05-05 17:10 28.92758 43.88095 35899 ft 416 kts 272°
2026-05-05 17:10 28.93249 43.81507 35897 ft 416 kts 272°
2026-05-05 17:11 28.93737 43.74927 35906 ft 416 kts 272°
2026-05-05 17:11 28.94222 43.68350 35908 ft 416 kts 272°
2026-05-05 17:12 28.94704 43.61775 35908 ft 415 kts 272°
2026-05-05 17:12 28.95183 43.55201 35909 ft 415 kts 272°
2026-05-05 17:13 28.95657 43.48630 35907 ft 416 kts 271°
2026-05-05 17:13 28.96123 43.42055 35909 ft 415 kts 271°
2026-05-05 17:14 28.96586 43.35481 35917 ft 415 kts 271°
2026-05-05 17:14 28.97043 43.28957 35917 ft 415 kts 271°
2026-05-05 17:15 28.97500 43.22378 35925 ft 418 kts 271°
2026-05-05 17:15 28.97961 43.15694 35927 ft 426 kts 271°
2026-05-05 17:16 28.98425 43.08906 35916 ft 430 kts 271°
2026-05-05 17:16 28.98891 43.02096 35915 ft 431 kts 271°
2026-05-05 17:17 28.99352 42.95282 35913 ft 430 kts 271°
2026-05-05 17:17 28.99812 42.88468 35917 ft 429 kts 271°
2026-05-05 17:18 29.00262 42.81674 35917 ft 429 kts 271°
2026-05-05 17:18 29.00709 42.74888 35915 ft 428 kts 271°
2026-05-05 17:19 29.01153 42.68114 35917 ft 427 kts 271°
2026-05-05 17:19 29.01593 42.61348 35917 ft 427 kts 271°
2026-05-05 17:20 29.02030 42.54595 35921 ft 426 kts 271°
2026-05-05 17:20 29.02461 42.47853 35926 ft 425 kts 271°
2026-05-05 17:21 29.02889 42.41116 35926 ft 425 kts 271°
2026-05-05 17:22 29.03523 42.31013 35924 ft 425 kts 271°
2026-05-05 17:22 29.03943 42.24280 35925 ft 425 kts 271°
2026-05-05 17:23 29.04359 42.17552 35928 ft 425 kts 271°
2026-05-05 17:23 29.04772 42.10818 35926 ft 424 kts 271°
2026-05-05 17:24 29.05183 42.04090 35928 ft 425 kts 271°
2026-05-05 17:24 29.05591 41.97391 35926 ft 425 kts 271°
2026-05-05 17:25 29.05997 41.90650 35947 ft 425 kts 271°
2026-05-05 17:25 29.06401 41.83911 35957 ft 425 kts 271°
2026-05-05 17:26 29.06805 41.77175 35964 ft 425 kts 271°
2026-05-05 17:26 29.07204 41.70433 35968 ft 425 kts 271°
2026-05-05 17:27 29.07599 41.63689 35973 ft 425 kts 271°
2026-05-05 17:27 29.07993 41.56945 35984 ft 425 kts 271°
2026-05-05 17:28 29.08382 41.50188 35979 ft 426 kts 271°
2026-05-05 17:28 29.08770 41.43432 35981 ft 426 kts 271°
2026-05-05 17:29 29.09149 41.36676 35997 ft 426 kts 270°
2026-05-05 17:29 29.09521 41.29968 35986 ft 426 kts 270°
2026-05-05 17:30 29.09890 41.23218 35992 ft 426 kts 270°
2026-05-05 17:30 29.10256 41.16468 36002 ft 426 kts 270°
2026-05-05 17:31 29.10619 41.09709 36004 ft 426 kts 270°
2026-05-05 17:31 29.10981 41.02953 35998 ft 426 kts 270°
2026-05-05 17:32 29.11337 40.96201 36010 ft 425 kts 270°
2026-05-05 17:32 29.11632 40.90541 36008 ft 425 kts 270°
2026-05-05 17:33 29.11980 40.83836 36010 ft 425 kts 270°
2026-05-05 17:33 29.12327 40.77082 36009 ft 425 kts 270°
2026-05-05 17:34 29.12671 40.70337 36018 ft 425 kts 270°
2026-05-05 17:34 29.13013 40.63580 36020 ft 425 kts 270°
2026-05-05 17:35 29.13303 40.56826 36013 ft 424 kts 266°
2026-05-05 17:35 29.13114 40.50098 36016 ft 423 kts 265°
2026-05-05 17:36 29.12855 40.43367 36029 ft 424 kts 265°
2026-05-05 17:36 29.12612 40.36633 36025 ft 424 kts 265°
2026-05-05 17:37 29.12381 40.29907 36031 ft 424 kts 265°
2026-05-05 17:37 29.12153 40.23174 36027 ft 424 kts 265°
2026-05-05 17:38 29.11921 40.16440 36028 ft 424 kts 265°
2026-05-05 17:38 29.11684 40.09713 36025 ft 423 kts 265°
2026-05-05 17:39 29.11445 40.02987 36035 ft 423 kts 265°
2026-05-05 17:39 29.11203 39.96259 36036 ft 423 kts 265°
2026-05-05 17:40 29.10964 39.89535 36034 ft 424 kts 266°
2026-05-05 17:40 29.10951 39.82789 36040 ft 424 kts 268°
2026-05-05 17:41 29.11026 39.76034 36032 ft 425 kts 268°
2026-05-05 17:41 29.11076 39.69283 36026 ft 425 kts 268°
2026-05-05 17:42 29.11102 39.62529 36027 ft 425 kts 268°
2026-05-05 17:42 29.11117 39.55775 36026 ft 425 kts 268°
2026-05-05 17:43 29.11129 39.49027 36026 ft 425 kts 267°
2026-05-05 17:43 29.11136 39.42271 36027 ft 425 kts 267°
2026-05-05 17:44 29.11142 39.35516 36027 ft 425 kts 267°
2026-05-05 17:44 29.11144 39.28813 36028 ft 424 kts 267°
2026-05-05 17:45 29.11143 39.22068 36018 ft 424 kts 267°
2026-05-05 17:45 29.11138 39.15321 36020 ft 424 kts 267°
2026-05-05 17:46 29.11131 39.08574 36018 ft 424 kts 267°
2026-05-05 17:46 29.11119 39.01835 36019 ft 424 kts 267°
2026-05-05 17:47 29.11105 38.95090 36009 ft 424 kts 267°
2026-05-05 17:47 29.11084 38.88341 36011 ft 424 kts 267°
2026-05-05 17:48 29.11055 38.81597 36007 ft 424 kts 267°
2026-05-05 17:48 29.11024 38.74859 36008 ft 424 kts 267°
2026-05-05 17:49 29.10991 38.68121 36002 ft 424 kts 267°
2026-05-05 17:49 29.10954 38.61386 35996 ft 424 kts 267°
2026-05-05 17:50 29.10914 38.54646 35999 ft 424 kts 267°
2026-05-05 17:50 29.10871 38.47896 35994 ft 424 kts 267°
2026-05-05 17:51 29.10825 38.41149 35988 ft 425 kts 267°
2026-05-05 17:51 29.10774 38.34398 35993 ft 424 kts 267°
2026-05-05 17:52 29.10714 38.27695 35994 ft 424 kts 267°
2026-05-05 17:52 29.10650 38.20956 35981 ft 424 kts 267°
2026-05-05 17:53 29.10583 38.14208 35983 ft 424 kts 267°
2026-05-05 17:53 29.10512 38.07463 35979 ft 424 kts 267°
2026-05-05 17:54 29.10441 38.00721 35970 ft 424 kts 267°
2026-05-05 17:54 29.10364 37.93979 35968 ft 424 kts 267°
2026-05-05 17:55 29.10284 37.87237 35961 ft 424 kts 267°
2026-05-05 17:55 29.10202 37.80494 35964 ft 424 kts 267°
2026-05-05 17:56 29.10116 37.73757 35961 ft 424 kts 267°
2026-05-05 17:56 29.10027 37.67025 35963 ft 424 kts 267°
2026-05-05 17:57 29.09934 37.60286 35954 ft 424 kts 267°
2026-05-05 17:57 29.09839 37.53543 35952 ft 424 kts 267°
2026-05-05 17:58 29.09759 37.46798 35957 ft 424 kts 267°
2026-05-05 17:58 29.09720 37.40048 35951 ft 424 kts 267°
2026-05-05 17:59 29.09680 37.33304 35954 ft 424 kts 267°
2026-05-05 17:59 29.09633 37.26599 35952 ft 424 kts 267°
2026-05-05 18:00 29.09579 37.19810 35957 ft 424 kts 267°
2026-05-05 18:00 29.09522 37.13072 35953 ft 424 kts 267°
2026-05-05 18:01 29.09462 37.06374 35957 ft 424 kts 267°
2026-05-05 18:01 29.09398 36.99630 35952 ft 424 kts 267°
2026-05-05 18:02 29.09332 36.92895 35952 ft 424 kts 267°
2026-05-05 18:02 29.09261 36.86157 35956 ft 424 kts 267°
2026-05-05 18:03 29.09187 36.79416 35956 ft 424 kts 267°
2026-05-05 18:03 29.09110 36.72675 35954 ft 424 kts 267°
2026-05-05 18:04 29.09029 36.65934 35956 ft 424 kts 267°
2026-05-05 18:04 29.08945 36.59190 35954 ft 424 kts 267°
2026-05-05 18:05 29.08858 36.52447 35950 ft 424 kts 267°
2026-05-05 18:05 29.08757 36.45708 35952 ft 424 kts 266°
2026-05-05 18:06 29.08578 36.38972 35955 ft 424 kts 266°
2026-05-05 18:06 29.08382 36.32292 35962 ft 423 kts 266°
2026-05-05 18:07 29.08186 36.25572 35961 ft 423 kts 266°
2026-05-05 18:07 29.07994 36.18857 35969 ft 423 kts 266°
2026-05-05 18:08 29.07800 36.12140 35965 ft 423 kts 266°
2026-05-05 18:08 29.07605 36.05420 35961 ft 423 kts 266°
2026-05-05 18:09 29.07405 35.98700 35973 ft 423 kts 266°
2026-05-05 18:09 29.07202 35.91987 35973 ft 423 kts 266°
2026-05-05 18:10 29.06996 35.85272 35982 ft 423 kts 266°
2026-05-05 18:10 29.06785 35.78561 35982 ft 422 kts 266°
2026-05-05 18:11 29.06572 35.71853 35982 ft 422 kts 266°
2026-05-05 18:11 29.06355 35.65140 35990 ft 422 kts 266°
2026-05-05 18:12 29.06136 35.58436 35991 ft 422 kts 266°
2026-05-05 18:12 29.05913 35.51726 35990 ft 423 kts 266°
2026-05-05 18:13 29.05686 35.44998 35993 ft 424 kts 266°
2026-05-05 18:13 29.05453 35.38281 35998 ft 423 kts 266°
2026-05-05 18:14 29.05221 35.31564 36008 ft 423 kts 266°
2026-05-05 18:14 29.04984 35.24843 35992 ft 423 kts 266°
2026-05-05 18:15 29.04743 35.18160 36006 ft 424 kts 266°
2026-05-05 18:15 29.04500 35.11432 35998 ft 424 kts 266°
2026-05-05 18:16 29.04254 35.04703 35998 ft 424 kts 266°
2026-05-05 18:16 29.04004 34.97982 36003 ft 423 kts 266°
2026-05-05 18:17 29.03751 34.91251 36000 ft 424 kts 266°
2026-05-05 18:17 29.03493 34.84522 36005 ft 424 kts 266°
2026-05-05 18:18 29.03335 34.77786 35998 ft 424 kts 267°
2026-05-05 18:18 29.03233 34.71051 36004 ft 424 kts 268°
2026-05-05 18:19 29.03951 34.64364 35998 ft 428 kts 283°
2026-05-05 18:19 29.05843 34.57907 36000 ft 429 kts 286°
2026-05-05 18:20 29.07779 34.51465 35997 ft 429 kts 285°
2026-05-05 18:20 29.09694 34.44989 36002 ft 430 kts 285°
2026-05-05 18:21 29.11268 34.39614 35995 ft 430 kts 285°
2026-05-05 18:21 29.13161 34.33130 35994 ft 429 kts 285°
2026-05-05 18:22 29.15047 34.26653 35992 ft 429 kts 285°
2026-05-05 18:22 29.16921 34.20215 35979 ft 423 kts 285°
2026-05-05 18:23 29.18772 34.13834 35999 ft 424 kts 285°
2026-05-05 18:23 29.20636 34.07394 35993 ft 428 kts 285°
2026-05-05 18:24 29.22511 34.00908 35994 ft 430 kts 285°
2026-05-05 18:24 29.24392 33.94393 35989 ft 432 kts 285°
2026-05-05 18:25 29.26276 33.87857 35985 ft 432 kts 285°
2026-05-05 18:25 29.28156 33.81324 35984 ft 431 kts 285°
2026-05-05 18:26 29.30015 33.74853 35992 ft 431 kts 285°
2026-05-05 18:26 29.31881 33.68340 35996 ft 430 kts 285°
2026-05-05 18:27 29.33740 33.61832 35990 ft 429 kts 285°
2026-05-05 18:27 29.35593 33.55336 36004 ft 428 kts 285°
2026-05-05 18:28 29.38362 33.45604 36009 ft 428 kts 285°
2026-05-05 18:28 29.40203 33.39119 36009 ft 428 kts 285°
2026-05-05 18:29 29.42033 33.32655 35577 ft 429 kts 285°
2026-05-05 18:29 29.42948 33.29425 35101 ft 423 kts 285°
2026-05-05 18:29 29.43850 33.26235 34668 ft 418 kts 285°
2026-05-05 18:30 29.44741 33.23080 34193 ft 414 kts 285°
2026-05-05 18:30 29.45622 33.19956 33726 ft 410 kts 285°
2026-05-05 18:30 29.46494 33.16860 33270 ft 406 kts 285°
2026-05-05 18:30 29.47355 33.13802 32802 ft 402 kts 285°
2026-05-05 18:31 29.48210 33.10758 32338 ft 399 kts 285°
2026-05-05 18:31 29.49060 33.07733 31887 ft 396 kts 285°
2026-05-05 18:31 29.49898 33.04744 31430 ft 392 kts 285°
2026-05-05 18:31 29.50731 33.01770 30975 ft 389 kts 285°
2026-05-05 18:32 29.51557 32.98825 30520 ft 386 kts 285°
2026-05-05 18:32 29.52374 32.95903 30076 ft 383 kts 286°
2026-05-05 18:32 29.53185 32.93003 29628 ft 380 kts 286°
2026-05-05 18:32 29.53987 32.90127 29163 ft 377 kts 286°
2026-05-05 18:33 29.54782 32.87278 28711 ft 373 kts 286°
2026-05-05 18:33 29.55571 32.84447 28250 ft 371 kts 286°
2026-05-05 18:33 29.56353 32.81638 27786 ft 368 kts 286°
2026-05-05 18:33 29.57129 32.78845 27336 ft 365 kts 286°
2026-05-05 18:34 29.57899 32.76077 26886 ft 363 kts 286°
2026-05-05 18:34 29.58663 32.73327 26412 ft 360 kts 286°
2026-05-05 18:34 29.59421 32.70592 25972 ft 358 kts 286°
2026-05-05 18:34 29.60164 32.67871 25521 ft 356 kts 285°
2026-05-05 18:35 29.60823 32.65140 25073 ft 353 kts 284°
2026-05-05 18:35 29.61437 32.62418 24624 ft 351 kts 283°
2026-05-05 18:35 29.62037 32.59708 24181 ft 349 kts 283°
2026-05-05 18:35 29.62546 32.57407 23797 ft 347 kts 283°
2026-05-05 18:36 29.63080 32.55006 23410 ft 345 kts 283°
2026-05-05 18:36 29.63674 32.52345 22972 ft 343 kts 283°
2026-05-05 18:36 29.64269 32.49692 22537 ft 341 kts 283°
2026-05-05 18:36 29.64860 32.47064 22106 ft 338 kts 284°
2026-05-05 18:37 29.65448 32.44454 21678 ft 336 kts 284°
2026-05-05 18:37 29.66031 32.41861 21254 ft 334 kts 284°
2026-05-05 18:37 29.66612 32.39282 20829 ft 332 kts 284°
2026-05-05 18:37 29.67188 32.36718 20404 ft 330 kts 284°
2026-05-05 18:38 29.67761 32.34170 19985 ft 328 kts 284°
2026-05-05 18:38 29.68330 32.31638 19567 ft 326 kts 284°
2026-05-05 18:38 29.68894 32.29118 19152 ft 324 kts 284°
2026-05-05 18:38 29.69456 32.26608 18737 ft 323 kts 284°
2026-05-05 18:39 29.70013 32.24121 18321 ft 321 kts 284°
2026-05-05 18:39 29.70568 32.21645 17912 ft 319 kts 284°
2026-05-05 18:39 29.71127 32.19216 17494 ft 318 kts 284°
2026-05-05 18:39 29.71702 32.16757 17017 ft 318 kts 284°
2026-05-05 18:40 29.72111 32.14229 16568 ft 318 kts 276°
2026-05-05 18:40 29.72322 32.11733 16149 ft 316 kts 275°
2026-05-05 18:40 29.72501 32.09217 15723 ft 316 kts 275°
2026-05-05 18:40 29.72672 32.06707 15295 ft 314 kts 275°
2026-05-05 18:41 29.72838 32.04199 14868 ft 314 kts 275°
2026-05-05 18:41 29.72998 32.01748 14481 ft 313 kts 275°
2026-05-05 18:41 29.73158 31.99261 14073 ft 311 kts 275°
2026-05-05 18:41 29.73316 31.96777 13657 ft 311 kts 275°
2026-05-05 18:42 29.73474 31.94302 13245 ft 310 kts 275°
2026-05-05 18:42 29.73629 31.91836 12836 ft 309 kts 275°
2026-05-05 18:42 29.73784 31.89375 12432 ft 308 kts 275°
2026-05-05 18:42 29.73938 31.86915 12016 ft 307 kts 275°
2026-05-05 18:43 29.74090 31.84470 11629 ft 306 kts 275°
2026-05-05 18:43 29.74241 31.82028 11235 ft 305 kts 275°
2026-05-05 18:43 29.74391 31.79605 10861 ft 304 kts 275°
2026-05-05 18:43 29.74540 31.77189 10494 ft 302 kts 275°
2026-05-05 18:44 29.74688 31.74793 10120 ft 300 kts 275°
2026-05-05 18:44 29.74836 31.72403 9732 ft 299 kts 275°
2026-05-05 18:44 29.74987 31.70020 9355 ft 298 kts 275°
2026-05-05 18:44 29.75126 31.67832 9050 ft 296 kts 275°
2026-05-05 18:45 29.75148 31.67483 9000 ft 295 kts 275°
2026-05-05 18:45 29.75298 31.65123 8617 ft 294 kts 275°
2026-05-05 18:45 29.75446 31.62783 8259 ft 293 kts 275°
2026-05-05 18:45 29.75594 31.60455 7907 ft 290 kts 275°
2026-05-05 18:46 29.75740 31.58141 7520 ft 290 kts 275°
2026-05-05 18:46 29.75886 31.55831 7178 ft 289 kts 275°
2026-05-05 18:46 29.76030 31.53536 6853 ft 287 kts 275°
2026-05-05 18:46 29.76174 31.51262 6491 ft 285 kts 275°
2026-05-05 18:47 29.76315 31.48990 6133 ft 284 kts 275°
2026-05-05 18:47 29.76453 31.46772 6049 ft 270 kts 275°
2026-05-05 18:47 29.76583 31.44696 6028 ft 250 kts 275°
2026-05-05 18:47 29.76697 31.42790 6030 ft 237 kts 275°
2026-05-05 18:48 29.76811 31.40880 6037 ft 236 kts 275°
2026-05-05 18:48 29.77069 31.39065 5903 ft 231 kts 289°
2026-05-05 18:48 29.77602 31.37312 5615 ft 233 kts 290°
2026-05-05 18:48 29.78137 31.35552 5365 ft 232 kts 290°
2026-05-05 18:49 29.78668 31.33801 5114 ft 233 kts 289°
2026-05-05 18:49 29.79200 31.32044 4887 ft 231 kts 290°
2026-05-05 18:49 29.79732 31.30301 4623 ft 231 kts 291°
2026-05-05 18:49 29.80519 31.28705 4367 ft 230 kts 306°
2026-05-05 18:50 29.81510 31.27265 4109 ft 229 kts 319°
2026-05-05 18:50 29.82792 31.26193 3851 ft 228 kts 325°
2026-05-05 18:50 29.84075 31.25193 3752 ft 216 kts 330°
2026-05-05 18:50 29.85430 31.24522 3465 ft 210 kts 331°
2026-05-05 18:51 29.86475 31.23379 3114 ft 206 kts 307°
2026-05-05 18:51 29.87355 31.22218 3189 ft 181 kts 321°
2026-05-05 18:51 29.88375 31.21473 3046 ft 171 kts 327°
2026-05-05 18:51 29.89459 31.20920 2753 ft 171 kts 346°
2026-05-05 18:52 29.90623 31.20842 2555 ft 166 kts
2026-05-05 18:52 29.91749 31.21088 2341 ft 162 kts 14°
2026-05-05 18:52 29.92838 31.21487 2098 ft 170 kts 17°
2026-05-05 18:52 29.93967 31.21978 2165 ft 177 kts 20°
2026-05-05 18:53 29.95196 31.22549 2568 ft 206 kts 22°
2026-05-05 18:53 29.96556 31.23357 3055 ft 232 kts 29°
2026-05-05 18:53 29.97937 31.24379 3559 ft 240 kts 33°
2026-05-05 18:53 29.99194 31.25594 3792 ft 228 kts 46°
2026-05-05 18:54 30.00188 31.27119 3304 ft 252 kts 58°
2026-05-05 18:54 30.01059 31.28894 2934 ft 262 kts 56°
2026-05-05 18:54 30.02215 31.30444 2620 ft 241 kts 41°
2026-05-05 18:54 30.03361 31.31601 2369 ft 205 kts 38°
2026-05-05 18:55 30.04395 31.32629 2028 ft 188 kts 40°
2026-05-05 18:55 30.05318 31.33589 1772 ft 170 kts 41°
2026-05-05 18:55 30.06083 31.34548 1532 ft 155 kts 49°
2026-05-05 18:55 30.06727 31.35492 1340 ft 148 kts 50°
2026-05-05 18:56 30.07378 31.36376 1192 ft 143 kts 46°
2026-05-05 18:56 30.08052 31.37254 981 ft 146 kts 47°
2026-05-05 18:56 30.08709 31.38129 822 ft 145 kts 47°
2026-05-05 18:56 30.09372 31.39019 613 ft 147 kts 48°
2026-05-05 18:57 30.10028 31.39905 420 ft 144 kts 48°
2026-05-05 18:57 30.10632 31.40721 385 ft 113 kts 39°
2026-05-05 18:57 30.11009 31.41213 388 ft 51 kts 49°
2026-05-05 18:57 30.11246 31.41507 387 ft 49 kts 35°
2026-05-05 18:58 30.11460 31.41615 387 ft 16 kts 17°
2026-05-05 18:58 30.11544 31.41606 388 ft 5 kts 308°
2026-05-05 18:58 30.11552 31.41564 388 ft 5 kts 267°
2026-05-05 18:58 30.11534 31.41522 388 ft 7 kts 238°
2026-05-05 18:59 30.11500 31.41477 388 ft 8 kts 228°
2026-05-05 18:59 30.11455 31.41420 388 ft 11 kts 228°
2026-05-05 18:59 30.11402 31.41351 388 ft 13 kts 228°
2026-05-05 18:59 30.11339 31.41270 388 ft 14 kts 232°
2026-05-05 19:00 30.11275 31.41177 388 ft 15 kts 227°
2026-05-05 19:00 30.11205 31.41084 388 ft 15 kts 229°
2026-05-05 19:00 30.11137 31.40995 388 ft 14 kts 229°
2026-05-05 19:00 30.11074 31.40909 388 ft 14 kts 229°
2026-05-05 19:01 30.11060 31.40814 386 ft 13 kts 304°
2026-05-05 19:01 30.11062 31.40727 379 ft 8 kts 218°
2026-05-05 19:01 30.11021 31.40679 379 ft 8 kts 227°
2026-05-05 19:01 30.10981 31.40629 378 ft 9 kts 228°
2026-05-05 19:02 30.10942 31.40574 377 ft 9 kts 228°
2026-05-05 19:02 30.10906 31.40519 378 ft 9 kts 247°
2026-05-05 19:02 30.10911 31.40451 376 ft 9 kts 286°
2026-05-05 19:02 30.10935 31.40364 370 ft 14 kts 287°
2026-05-05 19:03 30.10951 31.40306 366 ft 3 kts 285°
2026-05-05 19:03 30.10951 31.40262 368 ft 8 kts 252°
2026-05-05 19:03 30.10908 31.40228 363 ft 2 kts 173°
2026-05-05 19:03 30.10898 31.40238 363 ft 2 kts 142°
2026-05-05 19:04 30.10887 31.40247 364 ft 2 kts 142°
2026-05-05 19:04 30.10878 31.40257 364 ft 2 kts 140°
2026-05-05 19:04 30.10868 31.40266 368 ft 2 kts 139°
2026-05-05 19:04 30.10859 31.40275 365 ft 2 kts 139°
2026-05-05 19:05 30.10851 31.40283 365 ft 2 kts 139°
2026-05-05 19:05 30.10850 31.40285 365 ft 0 kts 139°